CZ-6A DEB, 61113

Orbit data source: Space-Track

CZ-6A DEB, 61113 is space debris in LEO originally from a launch on Tue, 06 Aug 2024 UTC launched from the Taiyaun Space Center, China (TSC). Debris objects in space refer to the collection of defunct objects orbiting the Earth. Examples of debris include non-operational satellites, rocket bodies, and fragments generated from explosions, collisions, or faulty payload assembly.

Loading next visibility...
Identifier
61113, 2024-140PF
Orbit
LEO
Country
Flag of CNCN / PRC
Related business
Manufacturer
SAST
Mission
Spacecraft
Bus & Motor
Unknown
Mass
Unknown
Launch date (UTC)
2024-08-06 (2 years ago)
Launch vehicle
Unknown
Launch site
Taiyaun Space Center, China (TSC)
Object type
Payload
Rocket body
Debris
Shape & HBR
Unknown shape, 0.1 m
Radar Cross Section
Small (<0.1 m²)

Expand to show TLE details & history
Last TLE update: 19 hours ago

TLE from 19 hours ago
0 CZ-6A DEB
1 61113U 24140PF  26171.18689680  .00000078  00000-0  63890-4 0  9991
2 61113  88.2837 233.8755 0441513  80.0641 285.0027 13.38969028 89235
Epoch: 2026-06-20T04:29Z
TLE epoch observation values (Epoch: 2026-06-20T04:29:07.883Z)
Latitude
-0.00001°
Longitude
-101.81247°
Altitude
1,044.271 km
Speed
7.365 km/s
True Right ascension
15h 35m 30s
True Declination
0° 00' 00"
Sunlit
Object was in full shadow at epoch
Visualization orbit readout
Latitude
Unknown
Longitude
Unknown
Altitude
Unknown
Speed
Unknown
Apparent Right ascension
Unknown
Apparent Declination
Unknown
Sunlit
N/A
Visualization observer readout
Local Sidereal Time
10:20:31
Azimuth
Unknown
Elevation
Unknown
Doppler factor
Unknown
Orbital elements
Apogee altitude
1,440.807 km
Perigee altitude
779.568 km
Semi-major axis
7,488.324 km
Eccentricity
0.04415
Inclination
88.2837°
RAAN
233.8755°
Arg. of periapsis
80.0641°
True anomaly
280.05118°
Mean anomaly
285.0027°
Eccentric anomaly
282.5333°
Mean motion
3.34939 °/min
Orbital period
107.48 mins
BSTAR
0.00006389
Loading maneuver chart data...
Computing Atmospheric mass density...
Loading historical data...
Loading historical data...
Loading historical data...
Loading historical data...
Loading historical data...
Loading historical data...
Loading historical data...

Documentation

Showing up to 5 results
|